Location: *
(46.1333°S, 161.2167°W)
Time: 03:43:01
(UTC+00:00)

Cosmos 1844 Rocket - Pass Details

Date: 15 July 2020
Orbit: 826 x 843 km, 71.0° (Epoch: 10 August)

Event Time Altitude Azimuth Distance (km) Brightness Sun altitude
Exits shadow 17:23:02 - 205° (SSW) 3,255 5.3 -9.9°
Reaches altitude 10° 17:25:03 10° 203° (SSW) 2,499 4.8 -9.6°
Maximum altitude 17:30:47 70° 119° (ESE) 909 3.0 -8.7°
Drops below altitude 10° 17:36:27 10° 34° (NE) 2,468 6.1 -7.8°
Sets 17:38:53 0° 32° (NNE) 3,394 6.9 -7.4°
